Location: New Frontier Mobile Home Park
(32.8448°N, 116.9675°W)
Time: 22:53:47
(UTC+00:00)

USA 267 - Pass Details

Date: 14 July 2020
Orbit: 1102 x 1106 km, 123.0° (Epoch: 02 August)

Event Time Altitude Azimuth Distance (km) Brightness Sun altitude
Exits shadow 09:28:45 28° 291° (WNW) 1,946 4.4 -31.0°
Drops below altitude 10° 09:31:48 10° 306° (NW) 2,959 5.6 -30.8°
Sets 09:34:23 0° 312° (NW) 3,920 6.3 -30.5°
